CW1032 Weather Reports


time (UTC)temp
C
wind
direction
speed
KPH
gust
KPH
rain 1hr
cm
rain 24hr
cm
rain mn
cm
humidity
%
barometer
mb
20260505040057 13 324 0.0 0.0 0.00 0.00 0.00 71 1010.4
20260505035549 13 0 0.0 0.0 0.00 0.00 0.00 71 1010.3
20260505035049 13 0 0.0 0.0 0.00 0.00 0.00 70 1010.3
20260505034555 13 0 0.0 0.0 0.00 0.00 0.00 71 1010.3
20260505034050 14 0 0.0 0.0 0.00 0.00 0.00 70 1010.3
20260505033549 14 0 0.0 0.0 0.00 0.00 0.00 69 1010.4
20260505033055 14 0 0.0 0.0 0.00 0.00 0.00 69 1010.3
20260505032549 15 0 0.0 0.0 0.00 0.00 0.00 68 1010.4
20260505032048 15 0 0.0 0.0 0.00 0.00 0.00 67 1010.3
20260505031608 15 0 0.0 0.0 0.00 0.00 0.00 67 1010.3
20260505031049 15 0 0.0 0.0 0.00 0.00 0.00 67 1010.2
20260505030549 15 0 0.0 0.0 0.00 0.00 0.00 67 1010.3
20260505030050 15 324 0.0 0.0 0.00 0.00 0.00 67 1010.3
20260505025550 15 0 0.0 0.0 0.00 0.00 0.00 67 1010.2
20260505025050 15 0 0.0 0.0 0.00 0.00 0.00 67 1010.3
20260505024551 15 0 0.0 0.0 0.00 0.00 0.00 67 1010.4
20260505024049 15 0 0.0 0.0 0.00 0.00 0.00 67 1010.3
20260505023552 15 0 0.0 0.0 0.00 0.00 0.00 66 1010.3
20260505023106 15 0 0.0 0.0 0.00 0.00 0.00 67 1010.3
20260505022549 15 0 0.0 0.0 0.00 0.00 0.00 65 1010.3
20260505022049 15 0 0.0 0.0 0.00 0.00 0.00 65 1010.2
20260505021552 16 0 0.0 0.0 0.00 0.00 0.00 64 1010.2
20260505021051 16 0 0.0 1.6 0.00 0.00 0.00 63 1010.3
20260505020552 16 0 0.0 1.6 0.00 0.00 0.00 63 1010.4
20260505020049 16 0 0.0 1.6 0.00 0.00 0.00 61 1010.4
20260505015549 16 0 0.0 1.6 0.00 0.00 0.00 61 1010.4
20260505015049 16 0 0.0 1.6 0.00 0.00 0.00 61 1010.3
20260505014556 16 0 0.0 1.6 0.00 0.00 0.00 61 1010.1
20260505014048 16 0 0.0 3.2 0.00 0.00 0.00 60 1010.0
20260505013548 16 324 0.0 3.2 0.00 0.00 0.00 60 1010.0
20260505013107 16 0 0.0 0.0 0.00 0.00 0.00 61 1010.1
20260505012550 16 0 0.0 0.0 0.00 0.00 0.00 61 1010.0
20260505012050 16 0 0.0 0.0 0.00 0.00 0.00 61 1010.0
20260505011552 16 0 0.0 0.0 0.00 0.00 0.00 61 1009.8
20260505011049 16 0 0.0 0.0 0.00 0.00 0.00 61 1009.7
20260505010549 16 0 0.0 0.0 0.00 0.00 0.00 60 1009.8
20260505010053 17 0 0.0 0.0 0.00 0.00 0.00 60 1009.8
20260505005549 17 0 0.0 0.0 0.00 0.00 0.00 59 1009.7
20260505005050 17 0 0.0 0.0 0.00 0.00 0.00 58 1009.7
20260505004558 17 0 0.0 0.0 0.00 0.00 0.00 58 1009.7
20260505004049 17 0 0.0 0.0 0.00 0.00 0.00 57 1009.7
20260505003550 17 0 0.0 0.0 0.00 0.00 0.00 56 1009.7
20260505003054 18 0 0.0 0.0 0.00 0.00 0.00 55 1009.7
20260505002550 18 0 0.0 1.6 0.00 0.00 0.00 54 1009.7
20260505002050 18 0 0.0 1.6 0.00 0.00 0.00 53 1009.7
20260505001555 18 330 0.0 1.6 0.00 0.00 0.00 53 1009.7
20260505001050 18 0 0.0 4.8 0.00 0.00 0.00 52 1009.6
20260505000549 18 0 0.0 6.4 0.00 0.00 0.00 52 1009.5
20260505000107 19 311 0.0 6.4 0.00 0.00 0.00 51 1009.5
20260504235550 19 0 0.0 4.8 0.00 0.00 0.00 51 1009.5
20260504235050 19 0 0.0 6.4 0.00 0.00 0.00 51 1009.5
20260504234550 20 331 0.0 9.7 0.00 0.00 0.00 50 1009.5
20260504234049 20 320 3.2 9.7 0.00 0.00 0.00 50 1009.5
20260504233550 20 179 0.0 9.7 0.00 0.00 0.00 50 1009.5
20260504233056 20 182 0.0 8.0 0.00 0.00 0.00 49 1009.5
20260504232550 20 337 0.0 4.8 0.00 0.00 0.00 49 1009.5
20260504232049 20 105 0.0 9.7 0.00 0.00 0.00 48 1009.5
20260504231554 21 310 1.6 11.3 0.00 0.00 0.00 48 1009.4
20260504231050 21 149 3.2 11.3 0.00 0.00 0.00 48 1009.5
20260504230551 21 30 1.6 6.4 0.00 0.00 0.00 47 1009.6
20260504230106 21 324 0.0 6.4 0.00 0.00 0.00 46 1009.6
20260504225549 21 281 1.6 9.7 0.00 0.00 0.00 46 1009.5
20260504225049 21 89 3.2 9.7 0.00 0.00 0.00 46 1009.4
20260504224555 21 210 1.6 9.7 0.00 0.00 0.00 45 1009.5
20260504224051 22 250 0.0 4.8 0.00 0.00 0.00 46 1009.4
20260504223550 22 293 0.0 3.2 0.00 0.00 0.00 45 1009.3
20260504223103 22 0 0.0 12.9 0.00 0.00 0.00 45 1009.3
20260504222549 22 293 0.0 12.9 0.00 0.00 0.00 42 1009.2
20260504222050 22 146 3.2 14.5 0.00 0.00 0.00 39 1009.3
20260504221603 23 292 4.8 14.5 0.00 0.00 0.00 39 1009.3
20260504221049 23 73 4.8 16.1 0.00 0.00 0.00 38 1009.3
20260504220551 24 152 1.6 16.1 0.00 0.00 0.00 39 1009.3
20260504220100 24 19 4.8 16.1 0.00 0.00 0.00 38 1009.2
20260504215553 24 0 1.6 17.7 0.00 0.00 0.00 38 1009.3
20260504215053 24 150 3.2 17.7 0.00 0.00 0.00 38 1009.3
20260504214558 24 314 1.6 9.7 0.00 0.00 0.00 38 1009.5
20260504214050 24 306 3.2 9.7 0.00 0.00 0.00 38 1009.4
20260504213550 24 158 0.0 12.9 0.00 0.00 0.00 40 1009.4
20260504213053 24 0 3.2 14.5 0.00 0.00 0.00 39 1009.4
20260504212550 24 297 3.2 14.5 0.00 0.00 0.00 39 1009.5
20260504212053 24 298 4.8 14.5 0.00 0.00 0.00 39 1009.6
20260504211553 24 286 4.8 12.9 0.00 0.00 0.00 37 1009.6
20260504211049 24 296 3.2 14.5 0.00 0.00 0.00 39 1009.6
20260504210549 24 111 3.2 14.5 0.00 0.00 0.00 39 1009.4
20260504210056 24 127 1.6 14.5 0.00 0.00 0.00 41 1009.5
20260504205550 24 106 4.8 14.5 0.00 0.00 0.00 38 1009.4
20260504205049 24 318 3.2 11.3 0.00 0.00 0.00 38 1009.4
20260504204600 24 263 1.6 17.7 0.00 0.00 0.00 39 1009.5
20260504204049 24 322 3.2 17.7 0.00 0.00 0.00 38 1009.5
20260504203551 23 314 3.2 11.3 0.00 0.00 0.00 41 1009.6
20260504203102 23 193 3.2 17.7 0.00 0.00 0.00 39 1009.7
20260504202549 23 128 4.8 17.7 0.00 0.00 0.00 40 1009.6
20260504202049 24 140 3.2 11.3 0.00 0.00 0.00 39 1009.8
20260504201601 23 301 3.2 12.9 0.00 0.00 0.00 39 1009.6
20260504201052 23 303 1.6 16.1 0.00 0.00 0.00 39 1009.9
20260504200550 23 167 3.2 16.1 0.00 0.00 0.00 38 1010.0
20260504200054 23 274 4.8 16.1 0.00 0.00 0.00 38 1010.0
20260504195549 23 88 3.2 16.1 0.00 0.00 0.00 38 1010.0
20260504195049 23 294 4.8 16.1 0.00 0.00 0.00 40 1010.3
20260504194553 24 140 3.2 12.9 0.00 0.00 0.00 39 1010.3
20260504194050 23 148 3.2 12.9 0.00 0.00 0.00 38 1010.3
20260504193550 23 333 3.2 14.5 0.00 0.00 0.00 38 1010.3
20260504193056 23 95 4.8 14.5 0.00 0.00 0.00 38 1010.5
20260504192549 23 298 3.2 14.5 0.00 0.00 0.00 41 1010.6
20260504192052 23 6 4.8 19.3 0.00 0.00 0.00 39 1010.7
20260504191602 23 293 3.2 19.3 0.00 0.00 0.00 38 1010.7
20260504191049 23 317 3.2 17.7 0.00 0.00 0.00 40 1010.7
20260504190549 23 254 3.2 16.1 0.00 0.00 0.00 38 1010.8
20260504190112 23 240 3.2 16.1 0.00 0.00 0.00 40 1010.9
20260504185549 23 321 4.8 11.3 0.00 0.00 0.00 37 1011.0
20260504185049 23 343 3.2 11.3 0.00 0.00 0.00 40 1011.1
20260504184557 23 317 1.6 17.7 0.00 0.00 0.00 37 1011.1
20260504184050 23 328 3.2 19.3 0.00 0.00 0.00 41 1011.2
20260504183550 23 185 8.0 19.3 0.00 0.00 0.00 38 1011.3
20260504183105 23 219 3.2 16.1 0.00 0.00 0.00 37 1011.3
20260504182551 22 289 3.2 20.9 0.00 0.00 0.00 41 1011.4
20260504182052 22 155 8.0 20.9 0.00 0.00 0.00 36 1011.4
20260504181558 23 300 4.8 17.7 0.00 0.00 0.00 37 1011.5
20260504181049 23 332 3.2 11.3 0.00 0.00 0.00 38 1011.4
20260504180550 23 311 4.8 11.3 0.00 0.00 0.00 37 1011.5
20260504180112 23 291 1.6 9.7 0.00 0.00 0.00 38 1011.6
20260504175552 23 0 1.6 6.4 0.00 0.00 0.00 36 1011.7
20260504175050 23 303 0.0 8.0 0.00 0.00 0.00 41 1011.7
20260504174557 23 283 0.0 16.1 0.00 0.00 0.00 41 1011.8
20260504174049 22 303 4.8 16.1 0.00 0.00 0.00 41 1011.8
20260504173550 22 177 1.6 12.9 0.00 0.00 0.00 42 1011.9
20260504173057 22 233 4.8 12.9 0.00 0.00 0.00 38 1012.0
20260504172549 22 86 4.8 14.5 0.00 0.00 0.00 38 1012.1
20260504172049 22 309 3.2 14.5 0.00 0.00 0.00 41 1012.1
20260504171553 22 0 4.8 16.1 0.00 0.00 0.00 40 1012.1
20260504171053 22 101 3.2 16.1 0.00 0.00 0.00 39 1012.2
20260504170550 22 300 4.8 16.1 0.00 0.00 0.00 41 1012.3
20260504151050 20 160 3.2 12.9 0.00 0.00 0.00 41 1013.5
20260504150550 20 285 1.6 9.7 0.00 0.00 0.00 42 1013.7
20260504141050 17 0 0.0 9.7 0.00 0.00 0.00 51 1013.8
20260504140552 16 282 0.0 6.4 0.00 0.00 0.00 52 1013.9
20260504130549 13 101 3.2 9.7 0.00 0.00 0.00 59 1014.1
20260504110549 6 0 0.0 1.6 0.00 0.00 0.00 81 1014.8
20260504100550 5 0 0.0 0.0 0.00 0.00 0.00 86 1014.7
20260504081556 4 0 0.0 0.0 0.00 0.00 0.00 86 1015.2
20260504081050 3 0 0.0 0.0 0.00 0.00 0.00 86 1015.2
20260504080550 3 0 0.0 0.0 0.00 0.00 0.00 86 1015.2
20260504050550 3 0 0.0 0.0 0.00 0.00 0.00 83 1015.4
20260504045549 3 0 0.0 0.0 0.00 0.00 0.00 82 1015.4
20260504045051 4 0 0.0 0.0 0.00 0.00 0.00 82 1015.5
20260504044600 4 0 0.0 0.0 0.00 0.00 0.00 82 1015.4
20260504044050 4 0 0.0 0.0 0.00 0.00 0.00 82 1015.5
20260504043550 4 0 0.0 0.0 0.00 0.00 0.00 82 1015.5
20260504043055 4 0 0.0 0.0 0.00 0.00 0.00 81 1015.4
20260504042549 4 0 0.0 0.0 0.00 0.00 0.00 81 1015.4
20260504042050 4 0 0.0 0.0 0.00 0.00 0.00 81 1015.4
20260504041555 5 0 0.0 0.0 0.00 0.00 0.00 80 1015.4
20260504041049 5 0 0.0 1.6 0.00 0.00 0.00 80 1015.3
20260504040551 5 0 0.0 1.6 0.00 0.00 0.00 80 1015.2